Location: Feura Bush
(42.5779°N, 73.8787°W)
Time: 05:41:37
(UTC+00:00)

UNISAT 6 - Pass Details

Date: 09 December 2024
Orbit: 584 x 653 km, 97.7° (Epoch: 18 January)

Event Time Altitude Azimuth Distance (km) Brightness Sun altitude
Rises 22:31:04 0° 356° (N) 2,826 ? -12.3°
Reaches altitude 10° 22:33:46 10° 337° (NNW) 1,926 ? -12.8°
Maximum altitude 22:36:34 18° 295° (WNW) 1,488 ? -13.2°
Drops below altitude 10° 22:39:23 10° 252° (WSW) 1,936 ? -13.7°
Sets 22:42:08 0° 233° (SW) 2,846 ? -14.2°
